Date String (YYYY-MM-DD hh:mm:ss) UTC,Instrument flags,Ambient pressure (hPa),Sample flow (lpm),Bypass flow (lpm),Sample temperature (°C),Ambient temperature (°C),ASC tube jacket temperature (°C),LED temperature (°C),Box temperature (°C),Sample RH (%),Span deviation,Mass concentration (μg/m³),Mass concentration (μg/m³),Mass concentration (μg/m³)
DateTimeUTC,F1_M11,P_M11,Q1_M11,Q2_M11,T1_M11,T2_M11,T3_M11,T4_M11,T5_M11,U1_M11,ZSPAN_M11,X0_M11,X2_M11,X1_M11
2022-08-11 09:00:00,,0831.9,5.00,0.00,29.7,27.4,00.0,38.4,31.4,23.9,0000.0,0014.14,0006.17,0004.89
2022-08-11 09:01:00,,0832.0,5.01,0.00,29.6,27.5,00.0,38.4,31.4,24.0,0000.0,0012.27,0006.14,0004.90
2022-08-11 09:02:00,,0832.0,5.01,0.00,29.6,27.6,00.0,38.4,31.3,24.0,0000.0,0013.53,0006.15,0004.91
2022-08-11 09:03:00,,0832.0,4.99,0.00,29.6,27.7,00.0,38.4,31.4,24.1,0000.0,0013.96,0006.11,0004.90
2022-08-11 09:04:00,,0832.0,5.00,0.00,29.6,27.9,00.0,38.4,31.4,24.1,0000.0,0013.78,0006.14,0004.91
2022-08-11 09:05:00,,0832.0,5.01,0.00,29.6,28.0,00.0,38.4,31.4,24.1,0000.0,0013.92,0006.17,0004.93
2022-08-11 09:06:00,,0832.0,5.00,0.00,29.6,28.2,00.0,38.4,31.5,24.1,0000.0,0014.20,0006.24,0004.96
2022-08-11 09:07:00,,0832.0,4.99,0.00,29.6,28.3,00.0,38.4,31.5,24.1,0000.0,0014.66,0006.25,0004.97
2022-08-11 09:08:00,,0832.0,5.00,0.00,29.6,28.4,00.0,38.4,31.5,24.2,0000.0,0015.13,0006.23,0004.96
2022-08-11 09:09:00,,0832.0,5.00,0.00,29.6,28.5,00.0,38.4,31.6,24.3,0000.0,0015.58,0006.23,0004.95
2022-08-11 09:10:00,,0831.9,5.00,0.00,29.7,28.5,00.0,38.4,31.6,24.3,0000.0,0015.63,0006.17,0004.93
2022-08-11 09:11:00,,0831.9,5.00,0.00,29.7,28.6,00.0,38.5,31.6,24.3,0000.0,0016.36,0006.18,0004.92
2022-08-11 09:12:00,,0832.0,4.99,0.00,29.7,28.7,00.0,38.5,31.7,24.3,0000.0,0016.43,0006.22,0004.90
2022-08-11 09:13:00,,0832.0,5.00,0.00,29.7,28.7,00.0,38.5,31.7,24.1,0000.0,0014.96,0006.19,0004.88
2022-08-11 09:14:00,,0832.1,5.00,0.00,29.8,28.8,00.0,38.5,31.8,24.0,0000.0,0014.17,0006.18,0004.86
2022-08-11 09:15:00,,0832.1,5.01,0.00,29.8,28.8,00.0,38.5,31.8,24.1,0000.0,0014.32,0006.11,0004.83
2022-08-11 09:16:00,,0832.1,5.01,0.00,29.8,28.2,00.0,38.5,31.6,24.2,0000.0,0015.26,0006.12,0004.80
2022-08-11 09:17:00,,0832.1,5.00,0.00,29.7,27.6,00.0,38.4,31.5,24.4,0000.0,0015.00,0006.06,0004.77
2022-08-11 09:18:00,,0832.0,5.00,0.00,29.7,27.5,00.0,38.4,31.4,24.5,0000.0,0014.97,0006.02,0004.76
2022-08-11 09:19:00,,0832.0,5.01,0.00,29.6,27.5,00.0,38.4,31.4,24.7,0000.0,0015.02,0006.01,0004.74
2022-08-11 09:20:00,,0832.0,4.99,0.00,29.6,27.6,00.0,38.4,31.4,24.7,0000.0,0014.89,0006.00,0004.73
2022-08-11 09:21:00,,0832.1,5.00,0.00,29.6,27.8,00.0,38.4,31.4,24.6,0000.0,0014.96,0006.03,0004.73
2022-08-11 09:22:00,,0832.0,5.01,0.00,29.5,27.9,00.0,38.4,31.4,24.5,0000.0,0014.95,0006.05,0004.72
2022-08-11 09:23:00,,0832.0,4.99,0.00,29.5,28.0,00.0,38.4,31.4,24.3,0000.0,0015.33,0006.05,0004.73
2022-08-11 09:24:00,,0832.0,5.00,0.00,29.6,28.1,00.0,38.4,31.5,24.2,0000.0,0015.73,0006.07,0004.73
2022-08-11 09:25:00,,0831.9,4.99,0.00,29.6,28.2,00.0,38.4,31.5,24.1,0000.0,0016.42,0006.15,0004.73
2022-08-11 09:26:00,,0832.0,5.00,0.00,29.6,28.3,00.0,38.4,31.5,24.2,0000.0,0016.26,0006.16,0004.74
2022-08-11 09:27:00,,0832.0,5.00,0.00,29.6,28.4,00.0,38.4,31.5,24.2,0000.0,0015.07,0006.12,0004.74
2022-08-11 09:28:00,,0832.0,5.01,0.00,29.6,28.5,00.0,38.4,31.6,24.1,0000.0,0015.47,0006.10,0004.74
2022-08-11 09:29:00,,0832.0,5.00,0.00,29.6,28.5,00.0,38.4,31.6,24.1,0000.0,0016.01,0006.14,0004.75
2022-08-11 09:30:00,,0832.0,4.99,0.00,29.7,28.6,00.0,38.4,31.6,24.0,0000.0,0015.05,0006.10,0004.73
2022-08-11 09:31:00,,0832.0,5.00,0.00,29.7,28.6,00.0,38.4,31.6,23.9,0000.0,0014.72,0006.07,0004.72
2022-08-11 09:32:00,,0831.9,5.00,0.00,29.7,28.7,00.0,38.5,31.7,23.8,0000.0,0014.59,0006.11,0004.71
2022-08-11 09:33:00,,0832.0,5.01,0.00,29.7,28.7,00.0,38.5,31.7,24.0,0000.0,0013.97,0006.08,0004.71
2022-08-11 09:34:00,,0832.0,4.99,0.00,29.8,28.8,00.0,38.5,31.7,24.1,0000.0,0013.47,0006.01,0004.69
2022-08-11 09:35:00,,0831.9,5.01,0.00,29.8,28.8,00.0,38.5,31.7,24.0,0000.0,0013.33,0006.01,0004.68
2022-08-11 09:36:00,,0832.0,5.00,0.00,29.8,28.8,00.0,38.5,31.8,23.8,0000.0,0012.96,0005.99,0004.69
2022-08-11 09:37:00,,0832.0,4.99,0.00,29.8,28.4,00.0,38.5,31.7,23.9,0000.0,0012.61,0006.00,0004.70
2022-08-11 09:38:00,,0832.0,5.00,0.00,29.8,27.7,00.0,38.5,31.4,23.9,0000.0,0013.03,0006.00,0004.70
2022-08-11 09:39:00,,0832.0,5.00,0.00,29.7,27.5,00.0,38.5,31.4,24.1,0000.0,0012.97,0005.96,0004.69
2022-08-11 09:40:00,,0831.9,4.99,0.00,29.6,27.5,00.0,38.4,31.4,24.3,0000.0,0012.52,0005.91,0004.67
2022-08-11 09:41:00,,0831.9,5.00,0.00,29.6,27.6,00.0,38.4,31.4,24.4,0000.0,0012.56,0005.90,0004.69
2022-08-11 09:42:00,,0832.0,5.00,0.00,29.6,27.7,00.0,38.4,31.4,24.5,0000.0,0012.60,0005.94,0004.70
2022-08-11 09:43:00,,0832.0,5.01,0.00,29.6,27.8,00.0,38.4,31.4,24.5,0000.0,0012.47,0005.88,0004.72
2022-08-11 09:44:00,,0831.9,5.00,0.00,29.5,27.9,00.0,38.4,31.4,24.6,0000.0,0012.27,0005.85,0004.73
2022-08-11 09:45:00,,0831.9,5.00,0.00,29.6,28.1,00.0,38.4,31.4,24.6,0000.0,0012.63,0005.88,0004.75
2022-08-11 09:46:00,,0832.0,5.00,0.00,29.6,28.2,00.0,38.4,31.5,24.6,0000.0,0012.70,0005.92,0004.77
2022-08-11 09:47:00,,0832.0,5.00,0.00,29.6,28.3,00.0,38.4,31.5,24.6,0000.0,0013.06,0005.91,0004.78
2022-08-11 09:48:00,,0831.9,5.00,0.00,29.6,28.3,00.0,38.4,31.5,24.5,0000.0,0013.46,0005.91,0004.79
2022-08-11 09:49:00,,0831.9,5.00,0.00,29.6,28.4,00.0,38.4,31.6,24.5,0000.0,0013.64,0005.95,0004.80
2022-08-11 09:50:00,,0832.0,5.00,0.00,29.7,28.5,00.0,38.4,31.6,24.5,0000.0,0013.50,0006.00,0004.82
2022-08-11 09:51:00,,0832.0,5.00,0.00,29.7,28.6,00.0,38.5,31.6,24.5,0000.0,0013.08,0006.01,0004.82
2022-08-11 09:52:00,,0832.0,5.00,0.00,29.7,28.6,00.0,38.5,31.6,24.5,0000.0,0013.05,0006.05,0004.82
2022-08-11 09:53:00,,0832.0,5.00,0.00,29.7,28.7,00.0,38.5,31.7,24.6,0000.0,0013.12,0006.07,0004.83
2022-08-11 09:54:00,,0832.0,5.00,0.00,29.7,28.7,00.0,38.5,31.7,24.6,0000.0,0013.39,0006.11,0004.83
2022-08-11 09:55:00,,0832.0,5.00,0.00,29.8,28.8,00.0,38.5,31.7,24.4,0000.0,0014.38,0006.16,0004.83
2022-08-11 09:56:00,,0832.0,5.00,0.00,29.8,28.8,00.0,38.5,31.8,24.2,0000.0,0014.57,0006.16,0004.84
2022-08-11 09:57:00,,0831.9,5.00,0.00,29.8,28.8,00.0,38.6,31.8,24.0,0000.0,0014.73,0006.11,0004.85
2022-08-11 09:58:00,,0831.9,5.02,0.00,29.8,28.7,00.0,38.6,31.8,24.2,0000.0,0014.37,0006.10,0004.84
2022-08-11 09:59:00,,0831.9,4.99,0.00,29.8,27.9,00.0,38.5,31.5,24.3,0000.0,0014.20,0006.11,0004.84
